GFSFLT2_prec_cloud_057.txt.gz
Cloud_Cover
0 0 0 0 0 0 0 0 0 0 0 0 0 0 0 30 100 100 100 100 88 22 0 0 0 0 0 0 0 0 0 0
0 0 0 0 0 0 0 0 0 0 0 0 1 0 0 0 98 100 100 98 86 10 2 5 1 0 0 0 0 0 0 0
0 0 0 0 0 1 0 0 0 0 0 0 4 88 100 82 100 79 77 96 100 100 100 2 58 11 0 0 0 0 0 0
0 0 0 0 0 2 5 0 0 0 0 0 92 100 27 60 100 100 97 100 100 100 100 100 17 5 4 0 0 0 0 0
4 0 2 0 0 0 0 1 0 11 0 0 50 100 93 100 100 92 100 100 100 100 100 100 95 20 19 5 2 0 0 0
0 0 10 0 0 0 0 4 0 5 0 0 74 100 100 100 98 31 44 100 100 100 100 100 85 93 100 32 5 0 0 0
0 0 0 0 0 0 0 0 0 0 0 0 100 100 97 100 100 100 100 69 100 100 100 100 96 93 100 92 5 0 0 0
0 0 0 0 0 0 0 0 0 0 0 0 3 96 86 81 99 100 100 56 64 100 100 100 100 100 100 100 100 30 0 0
1 3 4 1 0 0 0 0 0 0 0 0 0 1 13 97 100 100 100 67 67 98 100 100 100 100 100 100 41 87 5 4
15 95 51 0 2 0 0 0 0 0 0 0 0 0 4 5 88 100 100 100 5 30 98 100 100 100 100 100 100 79 55 42
84 78 1 0 0 2 0 0 0 0 0 0 0 0 0 35 80 94 70 95 2 0 100 100 100 100 100 100 100 100 100 100
100 96 4 0 24 86 95 0 0 3 0 0 0 0 0 38 27 100 100 90 5 0 43 100 100 100 100 100 100 100 100 100
96 100 52 20 11 91 39 6 0 0 0 0 0 0 0 17 100 100 100 67 9 16 4 94 98 44 83 100 100 100 100 100
100 100 87 31 8 64 73 0 7 0 0 0 0 0 0 0 84 100 98 100 91 6 17 24 85 70 100 100 100 100 100 100
100 100 41 30 55 17 28 93 62 63 3 0 0 0 0 0 7 100 10 7 100 98 74 21 5 5 54 100 100 100 99 89
100 100 82 47 95 67 19 98 26 0 28 95 67 0 0 0 0 20 49 5 92 100 100 53 85 28 71 95 100 100 100 100
100 99 100 100 100 100 100 100 100 100 34 0 33 2 1 11 30 76 69 85 100 100 100 99 100 79 95 70 74 48 3 4
100 100 100 100 100 100 100 100 100 100 100 100 100 96 90 81 100 100 92 94 98 78 100 44 100 93 82 100 100 100 86 0
100 100 100 100 100 100 100 100 100 100 100 100 100 100 90 74 100 86 100 100 100 97 97 100 100 100 99 100 100 100 99 34

GFSFLT2_prec_cloud_060.txt.gz
Cloud_Cover
0 0 0 0 0 0 0 0 0 0 0 0 5 5 1 0 24 89 99 100 100 100 6 0 0 0 0 0 0 0 0 0
0 0 0 0 0 0 0 0 0 0 0 0 0 0 0 0 0 2 77 100 100 100 100 3 0 0 0 0 0 0 0 0
0 0 0 0 0 0 0 0 0 0 0 0 0 0 0 0 0 0 81 99 98 93 71 29 2 0 0 0 0 0 0 0
1 0 0 0 0 0 0 0 0 0 0 0 0 1 0 0 0 0 100 100 100 100 100 15 1 46 68 0 0 0 0 0
0 1 0 0 0 0 0 0 0 2 0 0 0 4 5 0 0 0 52 100 100 100 84 70 11 47 100 0 0 0 0 0
2 1 4 0 0 0 0 0 0 3 73 0 0 5 3 3 0 0 2 87 100 100 100 100 92 94 55 1 0 4 2 0
0 0 3 92 13 0 0 0 0 0 51 2 0 5 3 28 0 0 0 73 100 100 100 99 100 99 100 99 5 32 5 0
5 0 0 1 70 60 0 0 0 0 1 0 4 0 1 2 4 0 0 100 100 100 100 100 94 58 100 100 51 5 5 2
3 0 0 0 0 95 7 1 0 0 0 0 4 0 2 2 77 5 3 100 100 100 100 99 92 98 100 98 100 100 100 100
40 5 16 0 0 0 2 61 4 0 0 0 0 5 3 23 40 86 26 100 100 100 100 100 100 99 47 34 100 98 100 100
92 5 1 0 0 0 0 0 2 0 0 0 0 0 0 51 100 100 96 98 100 100 100 100 99 100 98 100 100 100 100 100
89 46 47 64 0 0 0 0 12 4 0 0 22 0 0 2 100 100 100 95 87 100 98 100 100 100 100 100 100 100 100 100
98 93 70 60 9 23 43 21 0 34 5 3 72 2 0 0 62 100 100 100 62 78 35 100 100 100 100 100 100 100 100 100
100 91 92 62 88 72 21 27 87 60 46 66 86 49 0 0 0 72 100 100 99 98 24 99 100 100 100 100 100 100 100 100
83 5 21 5 36 46 94 100 100 100 100 100 100 99 1 0 0 0 39 100 100 100 98 81 100 100 100 100 58 100 100 100
80 97 72 21 28 90 100 100 100 100 100 98 100 88 6 0 0 0 0 2 99 100 100 99 99 100 100 76 100 100 100 100
99 50 100 100 100 100 100 99 100 100 100 100 100 80 38 75 30 58 51 0 3 23 68 96 92 97 72 91 100 100 100 100
100 92 100 100 100 100 100 100 100 100 100 100 100 100 100 100 100 23 0 4 29 10 100 48 99 100 32 100 100 100 100 100
99 100 100 100 100 100 100 100 100 100 100 100 100 100 100 100 99 100 48 28 40 61 19 100 71 100 100 100 100 100 100 100

GFSFLT2_prec_cloud_063.txt.gz
Cloud_Cover
0 0 0 0 0 0 0 0 0 0 0 0 0 0 0 1 0 21 97 100 93 8 6 5 8 0 0 0 0 0 0 0
0 0 0 0 0 0 0 0 0 0 0 0 0 0 0 0 0 4 51 58 93 47 20 5 8 1 0 0 0 0 0 0
0 0 0 0 0 0 0 0 0 0 0 0 0 0 0 0 0 0 0 74 100 96 4 23 5 0 0 0 0 0 0 0
55 3 0 0 0 0 0 0 0 0 0 0 0 0 0 0 0 0 0 1 100 100 100 100 59 4 1 0 0 0 0 0
5 5 0 0 0 0 0 0 0 0 0 0 0 0 0 0 0 1 0 0 6 100 100 100 100 10 0 0 0 0 0 0
3 3 4 0 0 0 3 0 0 0 0 0 0 0 0 0 0 9 78 97 58 68 100 100 100 98 30 1 0 0 0 0
5 0 0 4 5 1 0 0 0 0 0 2 0 0 0 0 0 0 49 100 100 100 100 100 97 100 94 0 0 0 0 0
64 10 0 0 2 4 5 1 0 0 0 3 4 0 0 0 0 0 0 92 100 100 100 100 100 100 86 0 6 0 0 0
4 59 11 3 0 14 65 5 0 0 0 0 3 1 0 0 0 0 0 0 91 100 100 100 95 93 25 46 100 95 0 3
4 0 4 4 5 1 19 72 5 0 0 0 0 0 0 0 0 0 4 0 10 99 100 100 100 100 53 12 100 100 94 3
5 30 1 0 0 0 0 2 60 8 7 20 0 0 0 0 0 0 3 3 0 71 100 100 100 100 73 64 87 100 100 79
60 14 44 3 4 0 0 51 0 5 8 80 86 0 0 0 0 0 10 27 5 12 100 95 92 100 100 91 100 27 59 47
97 93 30 6 4 4 15 30 25 65 67 71 100 43 0 0 0 0 26 98 54 73 76 87 100 86 97 100 100 100 86 87
100 76 41 8 11 5 6 5 49 100 100 100 100 100 100 15 20 0 0 14 99 63 99 100 100 74 35 100 100 100 100 88
5 5 5 4 3 39 100 100 97 100 100 100 100 100 100 15 75 37 0 2 6 100 100 100 100 100 78 99 100 100 100 78
100 100 31 8 5 5 8 47 100 100 100 100 100 100 97 100 100 100 100 60 6 48 94 100 100 100 94 61 100 88 100 100
76 11 87 100 100 14 25 60 97 100 100 100 100 100 100 100 100 100 100 80 13 0 0 80 100 100 100 13 100 100 68 100
23 10 27 5 70 100 100 58 91 100 50 100 100 100 100 100 100 99 96 100 100 55 0 0 66 100 100 100 100 90 65 98
5 5 5 5 5 100 100 100 100 87 100 100 100 100 100 100 100 69 92 100 100 100 42 56 34 58 99 73 100 100 73 50

GFSFLT2_prec_cloud_069.txt.gz
Cloud_Cover
0 0 0 0 0 0 0 0 0 0 0 0 0 0 1 23 4 4 5 5 22 60 62 59 89 49 5 2 2 0 0 0
0 0 0 0 0 0 0 0 0 0 0 0 0 0 36 100 41 0 5 100 43 87 76 89 100 58 84 15 0 0 1 0
0 0 0 0 0 0 0 0 0 0 0 0 0 66 78 66 100 88 56 33 100 100 98 74 100 98 11 3 14 34 14 4
5 1 0 0 0 0 0 0 0 0 0 0 0 64 100 100 100 100 100 100 100 83 87 78 92 93 88 25 66 100 99 99
71 14 4 0 0 0 0 0 0 0 0 0 0 0 34 100 100 100 100 89 85 88 100 98 100 100 100 70 36 73 100 100
100 58 5 5 0 0 0 0 0 0 0 0 0 0 0 2 100 100 100 100 100 100 97 100 100 100 82 98 100 100 98 90
66 22 5 0 2 0 0 0 0 0 0 0 0 0 0 0 0 87 100 100 100 100 100 100 100 100 82 100 99 100 100 80
71 74 16 5 21 0 5 3 0 0 0 0 0 0 0 0 0 0 0 92 100 100 100 100 100 100 100 100 100 100 100 100
5 5 5 0 0 2 4 5 5 3 0 0 0 0 0 0 0 0 0 0 27 100 100 100 100 100 100 99 100 100 100 100
0 0 2 3 1 0 0 0 0 0 0 0 0 0 0 0 0 0 0 0 0 5 35 100 100 100 93 96 94 100 100 100
0 0 0 0 0 0 0 12 15 0 0 0 0 0 0 0 0 0 0 0 0 0 0 1 68 100 100 100 100 95 100 100
1 0 0 0 0 0 0 0 31 0 0 0 0 0 0 0 0 0 0 0 0 0 0 0 0 20 74 100 100 99 100 100
5 5 4 0 0 0 3 21 0 1 4 2 1 0 0 0 0 0 0 0 0 0 0 0 0 0 32 100 100 100 93 100
70 39 4 1 4 4 1 0 0 5 5 5 4 5 1 0 0 0 0 0 0 0 0 0 0 0 0 1 82 100 100 93
4 0 0 0 0 0 0 0 1 2 5 5 5 5 5 5 0 4 44 31 44 29 10 0 1 6 0 2 5 46 100 100
3 0 0 5 11 0 0 0 0 4 5 5 29 12 5 10 77 58 99 100 100 100 67 41 2 17 1 0 38 24 25 98
5 28 14 5 55 90 8 4 2 0 4 7 18 11 26 59 97 100 90 100 100 100 100 78 95 25 17 0 4 42 10 89
5 5 5 2 0 2 5 5 5 2 0 2 19 5 13 29 30 15 46 100 100 100 100 81 79 99 13 11 45 98 63 7
5 0 0 0 0 0 0 0 0 0 0 0 0 5 22 78 100 100 99 68 100 100 100 81 100 100 97 58 94 68 100 85

GFSFLT2_prec_cloud_072.txt.gz
Cloud_Cover
0 0 0 0 3 19 2 2 0 0 0 0 0 0 0 8 3 63 100 59 66 73 48 61 12 5 14 5 4 0 6 0
0 0 0 0 0 1 0 1 0 1 1 0 0 0 0 77 95 94 100 89 100 98 90 76 37 44 74 38 73 2 38 13
0 0 0 0 0 0 2 1 0 4 23 0 0 23 37 90 100 100 76 93 87 100 91 100 100 72 100 100 85 94 5 14
3 0 0 0 0 0 0 4 0 6 9 0 0 62 100 100 100 100 100 100 98 100 99 100 100 100 100 100 100 100 5 0
100 2 0 0 0 0 0 0 7 0 1 0 0 8 100 100 100 100 100 100 97 100 100 98 94 100 100 100 93 98 100 75
76 100 3 0 0 0 0 0 34 18 0 0 0 0 35 100 100 100 100 100 100 100 100 100 100 100 100 96 100 100 80 11
100 98 100 16 0 0 0 0 2 46 0 0 0 0 0 2 98 100 100 100 100 100 100 100 100 95 99 100 100 99 75 100
99 100 100 100 54 0 0 0 0 0 0 0 0 0 0 0 0 1 98 100 100 100 100 100 100 100 100 100 100 100 100 100
6 100 100 100 100 100 100 100 4 1 0 0 0 0 0 0 0 0 0 0 52 100 100 89 99 90 100 100 99 100 100 100
0 3 94 99 100 100 83 73 31 5 0 0 0 0 0 0 0 0 0 0 0 0 91 100 100 99 40 36 71 100 100 100
0 0 0 2 46 57 26 13 5 4 4 0 0 0 0 0 0 0 0 0 0 0 0 1 55 98 100 100 99 95 100 98
5 4 0 0 0 0 5 5 1 0 0 0 0 0 0 0 0 0 0 0 0 0 0 0 0 0 69 98 74 100 100 100
27 5 5 2 0 0 0 5 5 3 0 0 0 0 0 0 0 0 0 0 0 0 0 0 0 0 0 0 1 46 73 92
8 63 21 4 0 2 1 0 0 0 0 0 0 0 3 0 0 2 0 0 0 0 0 0 0 0 0 0 0 22 97 99
8 19 2 4 5 0 0 0 0 0 0 0 0 3 5 2 5 0 0 0 0 0 0 0 0 0 0 0 0 0 0 43
0 0 0 1 0 0 0 0 0 0 0 0 5 5 5 5 5 5 5 6 8 24 7 9 24 19 8 11 15 3 0 1
4 1 0 0 0 0 0 0 0 1 3 5 5 5 5 5 5 5 16 81 98 92 96 45 38 96 100 16 11 5 0 0
5 4 0 0 0 0 1 0 0 4 2 5 5 10 26 18 28 25 8 73 100 100 98 70 53 44 95 99 67 30 30 0
5 2 0 0 5 3 2 2 4 3 5 5 5 5 5 84 22 3 26 85 100 74 65 100 83 77 100 100 97 100 100 96

GFSFLT2_prec_cloud_075.txt.gz
Cloud_Cover
4 26 92 21 5 4 100 66 52 98 12 5 7 0 0 1 58 50 97 100 76 46 100 71 100 73 1 0 0 0 0 1
0 4 45 65 61 12 88 98 100 100 1 18 7 11 0 0 8 24 28 46 100 98 100 79 66 100 24 0 2 5 3 0
2 0 0 1 4 5 99 45 100 100 89 0 0 0 0 32 0 5 87 59 57 75 97 90 100 100 100 46 5 5 4 1
1 4 0 0 4 4 5 3 42 100 100 44 37 0 0 100 66 80 100 94 100 69 80 100 100 100 100 80 38 62 18 24
18 1 0 0 0 1 5 73 71 51 53 78 20 36 1 88 100 56 84 98 100 100 100 100 100 100 100 78 100 96 61 54
100 98 37 4 0 0 4 6 29 52 20 8 7 13 58 100 100 99 100 63 99 92 98 100 100 97 100 66 52 70 100 84
54 5 21 88 4 0 0 0 100 100 20 1 1 0 14 96 92 100 95 100 84 69 99 100 100 96 100 97 75 76 100 100
79 10 89 73 1 0 0 2 4 100 100 61 0 0 0 1 97 94 89 100 98 100 63 100 100 100 100 100 100 100 100 86
100 100 100 86 100 78 0 0 58 96 33 0 0 0 0 0 0 0 82 96 68 60 57 100 98 98 100 100 98 77 100 100
100 100 100 100 100 100 100 51 3 1 2 0 0 0 0 0 0 0 0 0 16 20 100 97 67 27 19 4 58 100 100 100
11 100 100 100 100 100 100 62 100 15 0 0 0 0 0 0 0 0 0 0 0 0 0 3 91 100 99 85 40 42 99 95
5 24 99 69 100 100 100 100 100 84 59 4 2 6 0 0 0 0 0 0 0 0 0 0 0 0 8 68 66 100 97 40
5 5 11 4 0 70 100 100 100 100 100 100 98 20 0 0 0 0 0 0 0 0 0 0 0 0 0 0 0 60 55 7
69 59 66 39 0 0 3 68 96 100 100 100 100 72 0 0 0 0 0 0 0 0 0 0 0 0 0 0 0 0 0 0
94 100 25 10 5 4 4 4 0 14 94 100 94 5 0 0 0 0 0 0 0 0 0 0 0 0 0 0 7 1 0 0
4 5 5 5 5 5 0 1 2 0 0 0 0 1 5 5 5 5 5 4 4 2 1 0 8 0 0 0 0 0 0 0
4 3 4 3 5 3 3 1 0 0 1 5 5 5 5 5 4 5 3 4 1 2 2 3 14 20 16 8 1 0 0 0
5 24 9 3 5 3 5 0 0 2 5 5 5 5 5 9 29 4 13 2 1 1 1 5 11 20 25 62 74 62 3 0
65 71 73 57 5 2 4 5 5 5 5 5 5 5 5 20 38 12 52 20 5 8 3 7 17 20 33 95 100 90 77 85